Tracking 20710 objects as of 30-May-2020
HD Live streaming from Space Station
objects crossing your sky now

FENGYUN 1C DEB

Track FENGYUN 1C DEB now!
10-day predictions


NORAD ID: 30611
Int'l Code: 1999-025AMS
Perigee: 420.5 km
Apogee: 651.6 km
Inclination: 98.6 °
Period: 95.2 minutes
Semi major axis: 6907 km
RCS: 0.0108 m2 (small)
Launch date: May 10, 1999
Source: People's Republic of China (PRC)
Launch site: Taiyaun Space Center, China (TSC)

Note: This is SATELLITE DEBRIS
aabbcc
Your satellite tracking list
Your tracking list is empty




NASA's NSSDC Master Catalog

Two Line Element Set (TLE):
1 30611U 99025AMS 20150.69950149 +.00004375 +00000-0 +18287-3 0  9995
2 30611 098.5972 228.7379 0167313 155.1149 205.8266 15.12396442720306
Source of the keplerian elements: AFSPC